Farmington, MO

1:53 AM CST on December 10, 2019 (GMT -0600)
Farmington Regional

Weather History for KFAM - October, 2019

Change the Weather History Date:

Friday, October 18, 2019

  Actual Average Record
Temperature  
Mean Temperature 52 °F -  
Max Temperature 66 °F 65 °F 82 °F (2016)
Min Temperature 37 °F 43 °F 28 °F (2015)
Degree Days  
Heating Degree Days 14    
Growing Degree Days 2 (Base 50)    
Moisture  
Dew Point 41 °F    
Average Humidity 72    
Maximum Humidity 100    
Minimum Humidity 43    
Precipitation  
Precipitation 0.00 in - - ()
Sea Level Pressure  
Sea Level Pressure 30.00 in    
Wind  
Wind Speed 3 mph (SSE)    
Max Wind Speed 13 mph    
Max Gust Speed 17 mph    
Visibility 10 miles    
Events      
Averages and records for this station are not official NWS values.
T = Trace of Precipitation, MM = Missing Value Source: NWS Daily Summary

Daily Weather History Graph

Daily Weather History Graph

Search for Another Location

Airport or City:

Astronomy

Oct. 18, 2019 Rise Set
Actual Time 7:12 AM CDT 6:20 PM CDT
Civil Twilight 6:46 AM CDT 6:46 PM CDT
Nautical Twilight 6:15 AM CDT 7:17 PM CDT
Astronomical Twilight 5:45 AM CDT 7:47 PM CDT
Moon 9:41 PM CDT (10/18) 11:41 AM CDT (10/18)
Length of Visible Light 12h 00m
Length of Day
11h 07m
Waning Gibbous, 78% of the Moon is Illuminated
Oct 18
Waning Gibbous
Oct 21
Last Quarter
Oct 27
New
Nov 4
First Quarter
Nov 12
Full

Hourly Weather History & Observations

Time (CDT) Temp. Dew Point Humidity Pressure Visibility Wind Dir Wind Speed Gust Speed Precip Events Conditions
12:56 AM 41.0 °F 39.9 °F 96% 30.04 in 10.0 mi Calm Calm - N/A   Clear
1:56 AM 39.9 °F 39.0 °F 97% 30.04 in 10.0 mi Calm Calm - N/A   Clear
2:56 AM 41.0 °F 39.0 °F 93% 30.04 in 10.0 mi Calm Calm - N/A   Clear
3:56 AM 39.0 °F 37.9 °F 96% 30.05 in 10.0 mi Calm Calm - N/A   Clear
4:56 AM 37.9 °F 37.0 °F 97% 30.06 in 10.0 mi Calm Calm - N/A   Clear
5:56 AM 39.0 °F 37.9 °F 96% 30.07 in 10.0 mi Calm Calm - N/A   Clear
6:56 AM 37.0 °F 37.0 °F 100% 30.08 in 10.0 mi Calm Calm - N/A   Clear
7:56 AM 39.9 °F 39.0 °F 97% 30.09 in 10.0 mi Calm Calm - N/A   Clear
8:56 AM 46.9 °F 44.1 °F 90% 30.09 in 10.0 mi South 4.6 mph - N/A   Clear
9:56 AM 53.1 °F 44.1 °F 71% 30.09 in 10.0 mi SSE 9.2 mph - N/A   Clear
10:56 AM 57.9 °F 43.0 °F 58% 30.08 in 10.0 mi SSE 8.1 mph - N/A   Clear
12:56 PM 64.0 °F 44.1 °F 48% 30.04 in 10.0 mi SSE 8.1 mph - N/A   Clear
1:56 PM 64.9 °F 43.0 °F 45% 30.00 in 10.0 mi SE 11.5 mph 16.1 mph N/A   Clear
2:56 PM 64.9 °F 42.1 °F 43% 29.97 in 10.0 mi SSE 8.1 mph 17.3 mph N/A   Clear
3:56 PM 66.0 °F 43.0 °F 43% 29.95 in 10.0 mi SSE 10.4 mph - N/A   Clear
4:56 PM 64.9 °F 42.1 °F 43% 29.94 in 10.0 mi SSE 12.7 mph - N/A   Clear
5:56 PM 62.1 °F 43.0 °F 50% 29.93 in 10.0 mi SE 6.9 mph - N/A   Clear
6:56 PM 57.0 °F 41.0 °F 55% 29.93 in 10.0 mi SE 8.1 mph - N/A   Clear
7:56 PM 55.0 °F 41.0 °F 59% 29.93 in 10.0 mi SSE 3.5 mph - N/A   Clear
8:56 PM 55.0 °F 42.1 °F 62% 29.92 in 10.0 mi SE 8.1 mph - N/A   Clear
9:56 PM 51.1 °F 42.1 °F 71% 29.91 in 10.0 mi SSE 5.8 mph - N/A   Clear
10:56 PM 50.0 °F 42.1 °F 74% 29.89 in 10.0 mi SSE 5.8 mph - N/A   Clear
11:56 PM 48.9 °F 41.0 °F 74% 29.88 in 10.0 mi SSE 4.6 mph - N/A   Clear